Time,TemperatureF,DewpointF,PressureIn,WindDirection,WindDirectionDegrees,WindSpeedMPH,WindSpeedGustMPH,Humidity,HourlyPrecipIn,Conditions,Clouds,dailyrainin,SoftwareType,DateUTC
2013-04-23 00:03:00,36.2,22.8,30.52,SW,228,0.0,10.0,58,0.00,,,0.00,Wunderground PWS Mod,2013-04-23 04:03:00,
2013-04-23 00:05:00,34.6,23.3,30.50,West,270,0.0,2.0,63,0.00,,,0.00,Wunderground PWS Mod,2013-04-23 04:05:00,
2013-04-23 00:08:00,35.9,23.4,30.51,West,265,0.0,10.0,60,0.00,,,0.00,Wunderground PWS Mod,2013-04-23 04:08:00,
2013-04-23 00:13:00,35.8,23.3,30.51,West,265,0.0,7.0,60,0.00,,,0.00,Wunderground PWS Mod,2013-04-23 04:13:00,
2013-04-23 00:23:00,35.3,22.8,30.51,West,265,0.0,7.0,60,0.00,,,0.00,Wunderground PWS Mod,2013-04-23 04:23:00,
2013-04-23 00:28:00,35.0,22.9,30.51,West,265,0.0,7.0,61,0.00,,,0.00,Wunderground PWS Mod,2013-04-23 04:28:00,
2013-04-23 00:33:00,34.7,23.0,30.51,SSW,194,0.0,7.0,62,0.00,,,0.00,Wunderground PWS Mod,2013-04-23 04:33:00,
2013-04-23 00:38:00,34.6,23.3,30.50,SSE,147,0.0,7.0,63,0.00,,,0.00,Wunderground PWS Mod,2013-04-23 04:38:00,
2013-04-23 00:43:00,34.3,23.0,30.50,SSE,147,0.0,2.0,63,0.00,,,0.00,Wunderground PWS Mod,2013-04-23 04:43:00,
2013-04-23 00:53:00,33.5,23.7,30.50,SSE,147,0.0,2.0,67,0.00,,,0.00,Wunderground PWS Mod,2013-04-23 04:53:00,
2013-04-23 00:58:00,32.8,23.7,30.50,East,99,0.0,2.0,69,0.00,,,0.00,Wunderground PWS Mod,2013-04-23 04:58:00,
2013-04-23 01:03:00,32.1,23.4,30.50,East,99,0.0,2.0,70,0.00,,,0.00,Wunderground PWS Mod,2013-04-23 05:03:00,
2013-04-23 01:05:00,31.6,23.3,30.50,East,90,0.0,2.0,71,0.00,,,0.00,Wunderground PWS Mod,2013-04-23 05:05:00,
2013-04-23 01:13:00,31.2,23.2,30.50,ENE,65,1.0,2.0,72,0.00,,,0.00,Wunderground PWS Mod,2013-04-23 05:13:00,
2013-04-23 01:23:00,30.7,23.4,30.50,ENE,65,0.0,2.0,74,0.00,,,0.00,Wunderground PWS Mod,2013-04-23 05:23:00,
2013-04-23 01:32:00,30.1,23.1,30.50,ENE,65,0.0,2.0,75,0.00,,,0.00,Wunderground PWS Mod,2013-04-23 05:32:00,
2013-04-23 01:37:00,29.8,22.8,30.50,ENE,65,0.0,2.0,75,0.00,,,0.00,Wunderground PWS Mod,2013-04-23 05:37:00,
2013-04-23 01:43:00,29.7,23.1,30.50,ENE,65,0.0,2.0,76,0.00,,,0.00,Wunderground PWS Mod,2013-04-23 05:43:00,
2013-04-23 01:48:00,29.4,22.8,30.50,ENE,65,0.0,2.0,76,0.00,,,0.00,Wunderground PWS Mod,2013-04-23 05:48:00,
2013-04-23 01:53:00,29.3,23.0,30.50,ENE,65,0.0,2.0,77,0.00,,,0.00,Wunderground PWS Mod,2013-04-23 05:53:00,
2013-04-23 01:58:00,29.1,23.1,30.50,ENE,65,0.0,2.0,78,0.00,,,0.00,Wunderground PWS Mod,2013-04-23 05:58:00,
2013-04-23 02:03:00,29.0,23.0,30.50,ENE,65,0.0,2.0,78,0.00,,,0.00,Wunderground PWS Mod,2013-04-23 06:03:00,
2013-04-23 02:05:00,28.8,23.1,30.49,N/A,-737280,0.0,0.0,79,0.00,,,0.00,Wunderground PWS Mod,2013-04-23 06:05:00,
2013-04-23 02:08:00,28.8,23.1,30.49,ENE,65,0.0,2.0,79,0.00,,,0.00,Wunderground PWS Mod,2013-04-23 06:08:00,
2013-04-23 02:13:00,28.7,23.0,30.49,ENE,65,0.0,0.0,79,0.00,,,0.00,Wunderground PWS Mod,2013-04-23 06:13:00,
2013-04-23 02:22:00,28.4,23.0,30.48,ENE,65,0.0,0.0,80,0.00,,,0.00,Wunderground PWS Mod,2013-04-23 06:22:00,
2013-04-23 02:28:00,28.2,22.8,30.48,ENE,65,0.0,0.0,80,0.00,,,0.00,Wunderground PWS Mod,2013-04-23 06:28:00,
2013-04-23 02:33:00,28.1,23.0,30.48,ENE,65,0.0,0.0,81,0.00,,,0.00,Wunderground PWS Mod,2013-04-23 06:33:00,
2013-04-23 02:38:00,27.9,22.8,30.48,ENE,65,0.0,0.0,81,0.00,,,0.00,Wunderground PWS Mod,2013-04-23 06:38:00,
2013-04-23 02:43:00,27.8,22.7,30.48,ENE,65,0.0,1.0,81,0.00,,,0.00,Wunderground PWS Mod,2013-04-23 06:43:00,
2013-04-23 02:52:00,27.5,22.7,30.47,ENE,65,0.0,1.0,82,0.00,,,0.00,Wunderground PWS Mod,2013-04-23 06:52:00,
2013-04-23 02:57:00,27.5,22.7,30.47,ENE,65,0.0,1.0,82,0.00,,,0.00,Wunderground PWS Mod,2013-04-23 06:57:00,
2013-04-23 03:03:00,27.3,22.8,30.47,ENE,65,0.0,1.0,83,0.00,,,0.00,Wunderground PWS Mod,2013-04-23 07:03:00,
2013-04-23 03:05:00,27.2,23.0,30.47,N/A,-737280,0.0,0.0,84,0.00,,,0.00,Wunderground PWS Mod,2013-04-23 07:05:00,
2013-04-23 03:08:00,27.2,23.0,30.47,ENE,65,0.0,1.0,84,0.00,,,0.00,Wunderground PWS Mod,2013-04-23 07:08:00,
2013-04-23 03:13:00,26.9,22.7,30.47,ENE,65,0.0,0.0,84,0.00,,,0.00,Wunderground PWS Mod,2013-04-23 07:13:00,
2013-04-23 03:23:00,26.6,22.7,30.47,ENE,65,0.0,0.0,85,0.00,,,0.00,Wunderground PWS Mod,2013-04-23 07:23:00,
2013-04-23 03:28:00,26.6,23.0,30.47,ENE,65,0.0,1.0,86,0.00,,,0.00,Wunderground PWS Mod,2013-04-23 07:28:00,
2013-04-23 03:38:00,26.3,22.7,30.47,ENE,65,0.0,0.0,86,0.00,,,0.00,Wunderground PWS Mod,2013-04-23 07:38:00,
2013-04-23 03:43:00,26.1,22.5,30.47,ENE,65,0.0,1.0,86,0.00,,,0.00,Wunderground PWS Mod,2013-04-23 07:43:00,
2013-04-23 03:52:00,26.0,22.7,30.47,ENE,65,0.0,1.0,87,0.00,,,0.00,Wunderground PWS Mod,2013-04-23 07:52:00,
2013-04-23 03:57:00,26.0,22.9,30.47,ENE,65,0.0,1.0,88,0.00,,,0.00,Wunderground PWS Mod,2013-04-23 07:57:00,
2013-04-23 04:03:00,25.8,22.7,30.47,ENE,65,0.0,1.0,88,0.00,,,0.00,Wunderground PWS Mod,2013-04-23 08:03:00,
2013-04-23 04:05:00,25.7,22.6,30.46,N/A,-737280,0.0,0.0,88,0.00,,,0.00,Wunderground PWS Mod,2013-04-23 08:05:00,
2013-04-23 04:08:00,25.7,22.6,30.46,ENE,65,0.0,1.0,88,0.00,,,0.00,Wunderground PWS Mod,2013-04-23 08:08:00,
2013-04-23 04:13:00,25.6,22.5,30.46,ENE,65,0.0,0.0,88,0.00,,,0.00,Wunderground PWS Mod,2013-04-23 08:13:00,
2013-04-23 04:23:00,25.6,22.8,30.46,ENE,65,0.0,0.0,89,0.00,,,0.00,Wunderground PWS Mod,2013-04-23 08:23:00,
2013-04-23 04:28:00,25.4,22.6,30.46,ENE,65,0.0,0.0,89,0.00,,,0.00,Wunderground PWS Mod,2013-04-23 08:28:00,
2013-04-23 04:37:00,25.3,22.5,30.45,ENE,65,0.0,0.0,89,0.00,,,0.00,Wunderground PWS Mod,2013-04-23 08:37:00,
2013-04-23 04:43:00,25.3,22.5,30.45,ENE,65,0.0,0.0,89,0.00,,,0.00,Wunderground PWS Mod,2013-04-23 08:43:00,
2013-04-23 04:53:00,25.0,22.5,30.46,ENE,65,0.0,0.0,90,0.00,,,0.00,Wunderground PWS Mod,2013-04-23 08:53:00,
2013-04-23 04:58:00,24.8,22.3,30.46,ENE,65,0.0,0.0,90,0.00,,,0.00,Wunderground PWS Mod,2013-04-23 08:58:00,
2013-04-23 05:03:00,24.7,22.2,30.46,ENE,65,0.0,0.0,90,0.00,,,0.00,Wunderground PWS Mod,2013-04-23 09:03:00,
2013-04-23 05:05:00,24.5,22.0,30.45,N/A,-737280,0.0,0.0,90,0.00,,,0.00,Wunderground PWS Mod,2013-04-23 09:05:00,
2013-04-23 05:08:00,24.4,21.9,30.45,ENE,65,0.0,0.0,90,0.00,,,0.00,Wunderground PWS Mod,2013-04-23 09:08:00,
2013-04-23 05:13:00,24.4,21.9,30.45,ENE,65,0.0,0.0,90,0.00,,,0.00,Wunderground PWS Mod,2013-04-23 09:13:00,
2013-04-23 05:22:00,24.1,21.9,30.45,ENE,65,0.0,0.0,91,0.00,,,0.00,Wunderground PWS Mod,2013-04-23 09:22:00,
2013-04-23 05:28:00,24.1,22.1,30.45,ENE,65,0.0,0.0,92,0.00,,,0.00,Wunderground PWS Mod,2013-04-23 09:28:00,
2013-04-23 05:33:00,24.1,22.1,30.45,ENE,65,0.0,0.0,92,0.00,,,0.00,Wunderground PWS Mod,2013-04-23 09:33:00,
2013-04-23 05:38:00,23.9,21.9,30.45,ENE,65,0.0,0.0,92,0.00,,,0.00,Wunderground PWS Mod,2013-04-23 09:38:00,
2013-04-23 05:43:00,23.9,21.9,30.45,ENE,65,0.0,2.0,92,0.00,,,0.00,Wunderground PWS Mod,2013-04-23 09:43:00,
2013-04-23 05:53:00,23.8,21.8,30.45,ENE,65,0.0,2.0,92,0.00,,,0.00,Wunderground PWS Mod,2013-04-23 09:53:00,
2013-04-23 05:58:00,23.6,21.6,30.45,ENE,65,0.0,2.0,92,0.00,,,0.00,Wunderground PWS Mod,2013-04-23 09:58:00,
2013-04-23 06:05:00,23.5,21.5,30.45,N/A,-737280,0.0,0.0,92,0.00,,,0.00,Wunderground PWS Mod,2013-04-23 10:05:00,
2013-04-23 06:08:00,23.5,21.5,30.45,ENE,65,0.0,2.0,92,0.00,,,0.00,Wunderground PWS Mod,2013-04-23 10:08:00,
2013-04-23 06:13:00,23.5,21.8,30.45,ENE,65,0.0,0.0,93,0.00,,,0.00,Wunderground PWS Mod,2013-04-23 10:13:00,
2013-04-23 06:23:00,23.5,21.8,30.45,ENE,65,0.0,0.0,93,0.00,,,0.00,Wunderground PWS Mod,2013-04-23 10:23:00,
2013-04-23 06:32:00,23.5,21.8,30.45,ENE,65,0.0,0.0,93,0.00,,,0.00,Wunderground PWS Mod,2013-04-23 10:32:00,
2013-04-23 06:37:00,23.5,21.8,30.45,ENE,65,0.0,0.0,93,0.00,,,0.00,Wunderground PWS Mod,2013-04-23 10:37:00,
2013-04-23 06:42:00,23.6,21.9,30.45,ENE,65,0.0,1.0,93,0.00,,,0.00,Wunderground PWS Mod,2013-04-23 10:42:00,
2013-04-23 06:48:00,23.9,22.4,30.45,ENE,65,0.0,1.0,94,0.00,,,0.00,Wunderground PWS Mod,2013-04-23 10:48:00,
2013-04-23 06:53:00,24.7,23.2,30.45,ENE,65,0.0,1.0,94,0.00,,,0.00,Wunderground PWS Mod,2013-04-23 10:53:00,
2013-04-23 06:55:00,26.1,23.8,30.45,ENE,68,0.0,2.0,91,0.00,,,0.00,Wunderground PWS Mod,2013-04-23 10:55:00,
2013-04-23 06:58:00,25.3,23.6,30.45,ENE,65,0.0,1.0,93,0.00,,,0.00,Wunderground PWS Mod,2013-04-23 10:58:00,
2013-04-23 07:03:00,25.7,23.7,30.45,ENE,65,0.0,1.0,92,0.00,,,0.00,Wunderground PWS Mod,2013-04-23 11:03:00,
2013-04-23 07:13:00,26.7,24.2,30.45,ENE,65,0.0,2.0,90,0.00,,,0.00,Wunderground PWS Mod,2013-04-23 11:13:00,
2013-04-23 07:22:00,27.9,24.8,30.45,ENE,65,0.0,2.0,88,0.00,,,0.00,Wunderground PWS Mod,2013-04-23 11:22:00,
2013-04-23 07:25:00,29.5,25.3,30.45,N/A,-737280,0.0,0.0,84,0.00,,,0.00,Wunderground PWS Mod,2013-04-23 11:25:00,
2013-04-23 07:28:00,28.4,25.3,30.45,ENE,65,0.0,2.0,88,0.00,,,0.00,Wunderground PWS Mod,2013-04-23 11:28:00,
2013-04-23 07:33:00,29.3,25.6,30.45,ENE,65,0.0,2.0,86,0.00,,,0.00,Wunderground PWS Mod,2013-04-23 11:33:00,
2013-04-23 07:38:00,29.7,25.7,30.45,ENE,65,0.0,2.0,85,0.00,,,0.00,Wunderground PWS Mod,2013-04-23 11:38:00,
2013-04-23 07:43:00,30.3,25.5,30.45,ENE,65,0.0,0.0,82,0.00,,,0.00,Wunderground PWS Mod,2013-04-23 11:43:00,
2013-04-23 07:53:00,30.1,25.3,30.45,ENE,65,0.0,0.0,82,0.00,,,0.00,Wunderground PWS Mod,2013-04-23 11:53:00,
2013-04-23 07:58:00,30.3,25.5,30.45,ENE,65,0.0,0.0,82,0.00,,,0.00,Wunderground PWS Mod,2013-04-23 11:58:00,
2013-04-23 08:03:00,30.7,25.6,30.45,ENE,65,0.0,0.0,81,0.00,,,0.00,Wunderground PWS Mod,2013-04-23 12:03:00,
2013-04-23 08:05:00,31.2,25.7,30.44,ENE,68,0.0,1.0,80,0.00,,,0.00,Wunderground PWS Mod,2013-04-23 12:05:00,
2013-04-23 08:08:00,31.2,25.7,30.44,ENE,65,0.0,0.0,80,0.00,,,0.00,Wunderground PWS Mod,2013-04-23 12:08:00,
2013-04-23 08:13:00,31.9,26.1,30.44,ESE,111,0.0,1.0,79,0.00,,,0.00,Wunderground PWS Mod,2013-04-23 12:13:00,
2013-04-23 08:23:00,33.2,26.5,30.44,SW,221,0.0,1.0,76,0.00,,,0.00,Wunderground PWS Mod,2013-04-23 12:23:00,
2013-04-23 08:28:00,33.8,26.7,30.44,SSW,207,0.0,1.0,75,0.00,,,0.00,Wunderground PWS Mod,2013-04-23 12:28:00,
2013-04-23 08:33:00,34.1,26.7,30.44,SSW,196,1.0,1.0,74,0.00,,,0.00,Wunderground PWS Mod,2013-04-23 12:33:00,
2013-04-23 08:38:00,34.6,26.8,30.43,SW,228,1.0,1.0,73,0.00,,,0.00,Wunderground PWS Mod,2013-04-23 12:38:00,
2013-04-23 08:43:00,35.0,26.9,30.43,SW,217,1.0,4.0,72,0.00,,,0.00,Wunderground PWS Mod,2013-04-23 12:43:00,
2013-04-23 08:53:00,35.6,26.1,30.42,SSW,200,1.0,4.0,68,0.00,,,0.00,Wunderground PWS Mod,2013-04-23 12:53:00,
2013-04-23 08:58:00,35.6,26.1,30.42,SW,218,1.0,4.0,68,0.00,,,0.00,Wunderground PWS Mod,2013-04-23 12:58:00,
2013-04-23 09:03:00,35.9,26.4,30.42,SW,218,1.0,4.0,68,0.00,,,0.00,Wunderground PWS Mod,2013-04-23 13:03:00,
2013-04-23 09:05:00,36.0,25.7,30.42,SW,225,1.0,5.0,66,0.00,,,0.00,Wunderground PWS Mod,2013-04-23 13:05:00,
2013-04-23 09:13:00,36.8,26.9,30.42,SW,223,1.0,5.0,67,0.00,,,0.00,Wunderground PWS Mod,2013-04-23 13:13:00,
2013-04-23 09:22:00,37.5,26.4,30.41,West,261,1.0,5.0,64,0.00,,,0.00,Wunderground PWS Mod,2013-04-23 13:22:00,
2013-04-23 09:28:00,37.8,26.7,30.41,West,268,1.0,5.0,64,0.00,,,0.00,Wunderground PWS Mod,2013-04-23 13:28:00,
2013-04-23 09:33:00,38.3,26.0,30.41,SW,236,1.0,5.0,61,0.00,,,0.00,Wunderground PWS Mod,2013-04-23 13:33:00,
2013-04-23 09:38:00,38.5,25.8,30.40,WSW,255,1.0,5.0,60,0.00,,,0.00,Wunderground PWS Mod,2013-04-23 13:38:00,
2013-04-23 09:43:00,38.3,25.6,30.40,West,270,2.0,5.0,60,0.00,,,0.00,Wunderground PWS Mod,2013-04-23 13:43:00,
2013-04-23 09:53:00,39.2,24.8,30.39,ENE,78,1.0,5.0,56,0.00,,,0.00,Wunderground PWS Mod,2013-04-23 13:53:00,
2013-04-23 09:58:00,40.2,24.0,30.39,SW,218,2.0,5.0,52,0.00,,,0.00,Wunderground PWS Mod,2013-04-23 13:58:00,
2013-04-23 10:03:00,40.6,24.3,30.39,SE,134,2.0,5.0,52,0.00,,,0.00,Wunderground PWS Mod,2013-04-23 14:03:00,
2013-04-23 10:05:00,41.1,25.3,30.38,WSW,248,2.0,10.0,53,0.00,,,0.00,Wunderground PWS Mod,2013-04-23 14:05:00,
2013-04-23 10:13:00,41.6,25.7,30.38,NE,42,3.0,10.0,53,0.00,,,0.00,Wunderground PWS Mod,2013-04-23 14:13:00,
2013-04-23 10:23:00,42.3,26.4,30.37,NE,42,4.0,10.0,53,0.00,,,0.00,Wunderground PWS Mod,2013-04-23 14:23:00,
2013-04-23 10:33:00,42.8,26.8,30.37,SW,227,3.0,10.0,53,0.00,,,0.00,Wunderground PWS Mod,2013-04-23 14:33:00,
2013-04-23 10:38:00,43.3,26.8,30.36,ENE,62,2.0,10.0,52,0.00,,,0.00,Wunderground PWS Mod,2013-04-23 14:38:00,
2013-04-23 10:43:00,43.2,27.2,30.36,East,81,4.0,11.0,53,0.00,,,0.00,Wunderground PWS Mod,2013-04-23 14:43:00,
2013-04-23 10:48:00,43.3,27.3,30.36,ENE,57,4.0,11.0,53,0.00,,,0.00,Wunderground PWS Mod,2013-04-23 14:48:00,
2013-04-23 10:58:00,43.9,27.4,30.35,NE,36,2.0,11.0,52,0.00,,,0.00,Wunderground PWS Mod,2013-04-23 14:58:00,
2013-04-23 11:03:00,44.5,27.5,30.35,NNE,17,2.0,11.0,51,0.00,,,0.00,Wunderground PWS Mod,2013-04-23 15:03:00,
2013-04-23 11:05:00,45.2,27.2,30.34,NE,45,3.0,12.0,49,0.00,,,0.00,Wunderground PWS Mod,2013-04-23 15:05:00,
2013-04-23 11:08:00,45.2,27.2,30.34,East,80,3.0,11.0,49,0.00,,,0.00,Wunderground PWS Mod,2013-04-23 15:08:00,
2013-04-23 11:13:00,44.8,27.8,30.34,ESE,102,5.0,12.0,51,0.00,,,0.00,Wunderground PWS Mod,2013-04-23 15:13:00,
2013-04-23 11:23:00,45.7,27.6,30.34,ESE,110,4.0,12.0,49,0.00,,,0.00,Wunderground PWS Mod,2013-04-23 15:23:00,
2013-04-23 11:32:00,45.4,28.8,30.34,SW,222,3.0,12.0,52,0.00,,,0.00,Wunderground PWS Mod,2013-04-23 15:32:00,
2013-04-23 11:38:00,45.7,29.5,30.33,ENE,60,4.0,12.0,53,0.00,,,0.00,Wunderground PWS Mod,2013-04-23 15:38:00,
2013-04-23 11:43:00,45.8,30.1,30.33,East,82,5.0,15.0,54,0.00,,,0.00,Wunderground PWS Mod,2013-04-23 15:43:00,
2013-04-23 11:53:00,45.1,29.9,30.34,NE,48,6.0,15.0,55,0.00,,,0.00,Wunderground PWS Mod,2013-04-23 15:53:00,
2013-04-23 11:58:00,45.1,29.9,30.34,NE,41,4.0,15.0,55,0.00,,,0.00,Wunderground PWS Mod,2013-04-23 15:58:00,
2013-04-23 12:03:00,44.8,30.5,30.34,NNE,24,6.0,15.0,57,0.00,,,0.00,Wunderground PWS Mod,2013-04-23 16:03:00,
2013-04-23 12:05:00,44.9,31.0,30.33,ENE,68,6.0,16.0,58,0.00,,,0.00,Wunderground PWS Mod,2013-04-23 16:05:00,
2013-04-23 12:08:00,44.9,30.6,30.33,NE,38,8.0,15.0,57,0.00,,,0.00,Wunderground PWS Mod,2013-04-23 16:08:00,
2013-04-23 12:13:00,44.9,31.0,30.33,ENE,72,8.0,16.0,58,0.00,,,0.00,Wunderground PWS Mod,2013-04-23 16:13:00,
2013-04-23 12:23:00,44.8,30.9,30.32,ENE,61,6.0,16.0,58,0.00,,,0.00,Wunderground PWS Mod,2013-04-23 16:23:00,
2013-04-23 12:28:00,45.4,31.0,30.32,ENE,70,7.0,16.0,57,0.00,,,0.00,Wunderground PWS Mod,2013-04-23 16:28:00,
2013-04-23 12:33:00,45.4,31.5,30.32,ESE,115,4.0,16.0,58,0.00,,,0.00,Wunderground PWS Mod,2013-04-23 16:33:00,
2013-04-23 12:38:00,45.5,31.1,30.31,NE,36,3.0,16.0,57,0.00,,,0.00,Wunderground PWS Mod,2013-04-23 16:38:00,
2013-04-23 12:43:00,45.7,31.3,30.31,East,81,4.0,17.0,57,0.00,,,0.00,Wunderground PWS Mod,2013-04-23 16:43:00,
2013-04-23 12:52:00,45.7,31.3,30.31,WSW,246,5.0,17.0,57,0.00,,,0.00,Wunderground PWS Mod,2013-04-23 16:52:00,
2013-04-23 12:55:00,46.0,32.0,30.31,West,270,3.0,18.0,58,0.00,,,0.00,Wunderground PWS Mod,2013-04-23 16:55:00,
2013-04-23 12:58:00,46.2,31.8,30.31,WNW,288,3.0,17.0,57,0.00,,,0.00,Wunderground PWS Mod,2013-04-23 16:58:00,
2013-04-23 13:03:00,46.4,32.0,30.31,NE,42,2.0,17.0,57,0.00,,,0.00,Wunderground PWS Mod,2013-04-23 17:03:00,
2013-04-23 13:08:00,46.0,32.0,30.31,WSW,253,3.0,17.0,58,0.00,,,0.00,Wunderground PWS Mod,2013-04-23 17:08:00,
2013-04-23 13:13:00,45.5,32.4,30.31,NE,46,4.0,18.0,60,0.00,,,0.00,Wunderground PWS Mod,2013-04-23 17:13:00,
2013-04-23 13:23:00,45.1,32.8,30.30,ENE,70,4.0,18.0,62,0.00,,,0.00,Wunderground PWS Mod,2013-04-23 17:23:00,
2013-04-23 13:28:00,44.9,32.3,30.30,ESE,122,5.0,18.0,61,0.00,,,0.00,Wunderground PWS Mod,2013-04-23 17:28:00,
2013-04-23 13:38:00,44.8,32.6,30.30,NE,55,2.0,18.0,62,0.00,,,0.00,Wunderground PWS Mod,2013-04-23 17:38:00,
2013-04-23 13:43:00,44.5,32.7,30.30,NNE,21,3.0,11.0,63,0.00,,,0.00,Wunderground PWS Mod,2013-04-23 17:43:00,
2013-04-23 13:48:00,44.2,32.8,30.30,ENE,63,5.0,11.0,64,0.00,,,0.00,Wunderground PWS Mod,2013-04-23 17:48:00,
2013-04-23 13:58:00,44.2,33.2,30.29,ENE,64,3.0,11.0,65,0.00,,,0.00,Wunderground PWS Mod,2013-04-23 17:58:00,
2013-04-23 14:03:00,44.2,33.6,30.29,ENE,64,3.0,11.0,66,0.00,,,0.00,Wunderground PWS Mod,2013-04-23 18:03:00,
2013-04-23 14:05:00,44.1,33.8,30.30,ENE,68,4.0,15.0,67,0.00,,,0.00,Wunderground PWS Mod,2013-04-23 18:05:00,
2013-04-23 14:08:00,44.1,33.8,30.30,ESE,106,4.0,11.0,67,0.00,,,0.00,Wunderground PWS Mod,2013-04-23 18:08:00,
2013-04-23 14:13:00,44.2,33.6,30.30,NE,42,3.0,15.0,66,0.00,,,0.00,Wunderground PWS Mod,2013-04-23 18:13:00,
2013-04-23 14:22:00,44.2,33.9,30.29,ESE,106,4.0,15.0,67,0.00,,,0.00,Wunderground PWS Mod,2013-04-23 18:22:00,
2013-04-23 14:28:00,44.5,34.2,30.29,ENE,75,4.0,15.0,67,0.00,,,0.00,Wunderground PWS Mod,2013-04-23 18:28:00,
2013-04-23 14:33:00,44.5,34.2,30.29,NE,38,3.0,15.0,67,0.00,,,0.00,Wunderground PWS Mod,2013-04-23 18:33:00,
2013-04-23 14:38:00,44.3,34.4,30.29,NNE,31,3.0,15.0,68,0.00,,,0.00,Wunderground PWS Mod,2013-04-23 18:38:00,
2013-04-23 14:43:00,44.2,34.3,30.29,ESE,112,4.0,12.0,68,0.00,,,0.00,Wunderground PWS Mod,2013-04-23 18:43:00,
2013-04-23 14:48:00,44.1,34.6,30.29,East,84,5.0,12.0,69,0.00,,,0.00,Wunderground PWS Mod,2013-04-23 18:48:00,
2013-04-23 14:53:00,44.1,34.6,30.28,ENE,59,6.0,12.0,69,0.00,,,0.00,Wunderground PWS Mod,2013-04-23 18:53:00,
2013-04-23 15:00:00,43.9,34.7,30.28,ENE,68,5.0,14.0,70,0.00,,,0.00,Wunderground PWS Mod,2013-04-23 19:00:00,
2013-04-23 15:02:00,43.8,34.6,30.28,East,101,6.0,12.0,70,0.00,,,0.00,Wunderground PWS Mod,2013-04-23 19:02:00,
2013-04-23 15:08:00,43.9,34.7,30.28,East,88,5.0,12.0,70,0.00,,,0.00,Wunderground PWS Mod,2013-04-23 19:08:00,
2013-04-23 15:13:00,44.1,34.9,30.28,NNE,26,2.0,14.0,70,0.00,,,0.00,Wunderground PWS Mod,2013-04-23 19:13:00,
2013-04-23 15:22:00,44.1,34.9,30.27,NNE,32,4.0,14.0,70,0.00,,,0.00,Wunderground PWS Mod,2013-04-23 19:22:00,
2013-04-23 15:28:00,44.2,35.0,30.27,NW,323,3.0,14.0,70,0.00,,,0.00,Wunderground PWS Mod,2013-04-23 19:28:00,
2013-04-23 15:30:00,44.2,35.0,30.27,NE,45,3.0,13.0,70,0.00,,,0.00,Wunderground PWS Mod,2013-04-23 19:30:00,
2013-04-23 15:33:00,44.3,35.1,30.27,East,92,3.0,14.0,70,0.00,,,0.00,Wunderground PWS Mod,2013-04-23 19:33:00,
2013-04-23 15:38:00,44.2,35.0,30.27,NE,39,2.0,14.0,70,0.00,,,0.00,Wunderground PWS Mod,2013-04-23 19:38:00,
2013-04-23 15:43:00,44.1,35.3,30.27,NE,55,2.0,13.0,71,0.00,,,0.00,Wunderground PWS Mod,2013-04-23 19:43:00,
2013-04-23 15:53:00,44.1,35.3,30.26,NE,49,3.0,13.0,71,0.00,,,0.00,Wunderground PWS Mod,2013-04-23 19:53:00,
2013-04-23 15:58:00,44.2,35.4,30.26,ENE,59,2.0,13.0,71,0.00,,,0.00,Wunderground PWS Mod,2013-04-23 19:58:00,
2013-04-23 16:03:00,44.3,35.1,30.26,ENE,67,3.0,13.0,70,0.00,,,0.00,Wunderground PWS Mod,2013-04-23 20:03:00,
2013-04-23 16:05:00,44.3,35.5,30.26,ENE,68,3.0,12.0,71,0.00,,,0.00,Wunderground PWS Mod,2013-04-23 20:05:00,
2013-04-23 16:08:00,44.3,35.5,30.26,SE,131,3.0,13.0,71,0.00,,,0.00,Wunderground PWS Mod,2013-04-23 20:08:00,
2013-04-23 16:13:00,44.5,35.7,30.26,NE,55,4.0,12.0,71,0.00,,,0.00,Wunderground PWS Mod,2013-04-23 20:13:00,
2013-04-23 16:23:00,44.6,35.4,30.25,ESE,115,4.0,12.0,70,0.00,,,0.00,Wunderground PWS Mod,2013-04-23 20:23:00,
2013-04-23 16:28:00,44.5,35.7,30.25,SSE,148,4.0,12.0,71,0.00,,,0.00,Wunderground PWS Mod,2013-04-23 20:28:00,
2013-04-23 16:33:00,44.8,35.6,30.25,NNE,32,3.0,12.0,70,0.00,,,0.00,Wunderground PWS Mod,2013-04-23 20:33:00,
2013-04-23 16:38:00,45.1,35.9,30.25,WSW,256,2.0,12.0,70,0.00,,,0.00,Wunderground PWS Mod,2013-04-23 20:38:00,
2013-04-23 16:43:00,45.2,35.6,30.25,WSW,258,2.0,11.0,69,0.00,,,0.00,Wunderground PWS Mod,2013-04-23 20:43:00,
2013-04-23 16:48:00,45.2,35.6,30.25,WNW,298,2.0,11.0,69,0.00,,,0.00,Wunderground PWS Mod,2013-04-23 20:48:00,
2013-04-23 16:58:00,45.2,36.0,30.24,SW,217,3.0,11.0,70,0.00,,,0.00,Wunderground PWS Mod,2013-04-23 20:58:00,
2013-04-23 17:03:00,45.4,36.2,30.24,SSW,203,2.0,11.0,70,0.00,,,0.00,Wunderground PWS Mod,2013-04-23 21:03:00,
2013-04-23 17:05:00,45.4,36.5,30.23,WSW,248,2.0,11.0,71,0.00,,,0.00,Wunderground PWS Mod,2013-04-23 21:05:00,
2013-04-23 17:08:00,45.4,36.5,30.23,WSW,245,1.0,11.0,71,0.00,,,0.00,Wunderground PWS Mod,2013-04-23 21:08:00,
2013-04-23 17:13:00,45.4,36.2,30.23,South,175,1.0,11.0,70,0.00,,,0.00,Wunderground PWS Mod,2013-04-23 21:13:00,
2013-04-23 17:23:00,45.4,36.5,30.23,SW,221,2.0,11.0,71,0.00,,,0.00,Wunderground PWS Mod,2013-04-23 21:23:00,
2013-04-23 17:28:00,45.5,36.6,30.23,NW,304,1.0,11.0,71,0.00,,,0.00,Wunderground PWS Mod,2013-04-23 21:28:00,
2013-04-23 17:38:00,45.2,36.4,30.24,SE,130,2.0,11.0,71,0.00,,,0.00,Wunderground PWS Mod,2013-04-23 21:38:00,
2013-04-23 17:43:00,45.2,36.4,30.24,East,88,2.0,7.0,71,0.00,,,0.00,Wunderground PWS Mod,2013-04-23 21:43:00,
2013-04-23 17:53:00,45.1,36.6,30.23,East,85,3.0,7.0,72,0.00,,,0.00,Wunderground PWS Mod,2013-04-23 21:53:00,
2013-04-23 17:58:00,45.2,36.7,30.23,NE,49,3.0,7.0,72,0.00,,,0.00,Wunderground PWS Mod,2013-04-23 21:58:00,
2013-04-23 18:03:00,45.2,36.7,30.23,ENE,74,2.0,7.0,72,0.00,,,0.00,Wunderground PWS Mod,2013-04-23 22:03:00,
2013-04-23 18:05:00,45.5,36.6,30.23,East,90,2.0,7.0,71,0.00,,,0.00,Wunderground PWS Mod,2013-04-23 22:05:00,
2013-04-23 18:13:00,45.4,36.5,30.23,East,100,1.0,7.0,71,0.00,,,0.00,Wunderground PWS Mod,2013-04-23 22:13:00,
2013-04-23 18:23:00,45.2,36.7,30.23,SSE,148,2.0,7.0,72,0.00,,,0.00,Wunderground PWS Mod,2013-04-23 22:23:00,
2013-04-23 18:28:00,45.2,36.7,30.23,NE,35,2.0,7.0,72,0.00,,,0.00,Wunderground PWS Mod,2013-04-23 22:28:00,
2013-04-23 18:33:00,45.1,36.6,30.23,SE,137,2.0,7.0,72,0.00,,,0.00,Wunderground PWS Mod,2013-04-23 22:33:00,
2013-04-23 18:43:00,45.2,36.7,30.22,SE,132,1.0,8.0,72,0.00,,,0.00,Wunderground PWS Mod,2013-04-23 22:43:00,
2013-04-23 18:45:00,45.4,36.9,30.21,SE,135,0.0,6.0,72,0.00,,,0.00,Wunderground PWS Mod,2013-04-23 22:45:00,
2013-04-23 18:53:00,45.4,36.5,30.22,SSE,164,1.0,8.0,71,0.00,,,0.00,Wunderground PWS Mod,2013-04-23 22:53:00,
2013-04-23 18:58:00,45.4,36.9,30.22,SSE,164,1.0,8.0,72,0.00,,,0.00,Wunderground PWS Mod,2013-04-23 22:58:00,
2013-04-23 19:03:00,45.4,36.9,30.22,SSE,164,0.0,8.0,72,0.00,,,0.00,Wunderground PWS Mod,2013-04-23 23:03:00,
2013-04-23 19:08:00,45.4,36.9,30.21,SSE,164,0.0,8.0,72,0.00,,,0.00,Wunderground PWS Mod,2013-04-23 23:08:00,
2013-04-23 19:13:00,45.2,36.7,30.21,SSE,164,0.0,6.0,72,0.00,,,0.00,Wunderground PWS Mod,2013-04-23 23:13:00,
2013-04-23 19:20:00,45.1,37.0,30.19,SSE,158,0.0,2.0,73,0.00,,,0.00,Wunderground PWS Mod,2013-04-23 23:20:00,
2013-04-23 19:23:00,45.2,36.7,30.19,SSE,164,0.0,6.0,72,0.00,,,0.00,Wunderground PWS Mod,2013-04-23 23:23:00,
2013-04-23 19:28:00,45.1,36.6,30.19,SSE,164,0.0,6.0,72,0.00,,,0.00,Wunderground PWS Mod,2013-04-23 23:28:00,
2013-04-23 19:33:00,45.1,36.6,30.19,SSE,164,0.0,6.0,72,0.00,,,0.00,Wunderground PWS Mod,2013-04-23 23:33:00,
2013-04-23 19:38:00,45.1,37.0,30.19,SSE,164,0.0,6.0,73,0.00,,,0.00,Wunderground PWS Mod,2013-04-23 23:38:00,
2013-04-23 19:43:00,44.9,36.4,30.19,SSE,163,0.0,2.0,72,0.00,,,0.00,Wunderground PWS Mod,2013-04-23 23:43:00,
2013-04-23 19:50:00,44.3,36.5,30.19,SSE,158,0.0,3.0,74,0.00,,,0.00,Wunderground PWS Mod,2013-04-23 23:50:00,
2013-04-23 19:52:00,44.8,36.7,30.18,SSE,166,1.0,2.0,73,0.00,,,0.00,Wunderground PWS Mod,2013-04-23 23:52:00,
2013-04-23 19:58:00,44.6,36.5,30.18,SW,234,1.0,2.0,73,0.00,,,0.00,Wunderground PWS Mod,2013-04-23 23:58:00,
2013-04-23 20:03:00,44.5,36.7,30.18,SW,234,1.0,2.0,74,0.00,,,0.00,Wunderground PWS Mod,2013-04-24 00:03:00,
2013-04-23 20:08:00,44.3,36.5,30.19,SW,234,0.0,2.0,74,0.00,,,0.00,Wunderground PWS Mod,2013-04-24 00:08:00,
2013-04-23 20:13:00,44.2,36.4,30.19,SW,234,0.0,3.0,74,0.00,,,0.00,Wunderground PWS Mod,2013-04-24 00:13:00,
2013-04-23 20:15:00,43.8,36.7,30.19,SW,225,0.0,4.0,76,0.00,,,0.00,Wunderground PWS Mod,2013-04-24 00:15:00,
2013-04-23 20:23:00,44.1,36.7,30.20,WSW,244,1.0,3.0,75,0.00,,,0.00,Wunderground PWS Mod,2013-04-24 00:23:00,
2013-04-23 20:28:00,43.9,36.5,30.20,SSW,193,0.0,3.0,75,0.00,,,0.00,Wunderground PWS Mod,2013-04-24 00:28:00,
2013-04-23 20:33:00,43.8,36.4,30.20,SSW,193,0.0,3.0,75,0.00,,,0.00,Wunderground PWS Mod,2013-04-24 00:33:00,
2013-04-23 20:38:00,43.8,36.7,30.20,SSW,193,0.0,3.0,76,0.00,,,0.00,Wunderground PWS Mod,2013-04-24 00:38:00,
2013-04-23 20:43:00,43.8,36.7,30.20,SSW,193,0.0,4.0,76,0.00,,,0.00,Wunderground PWS Mod,2013-04-24 00:43:00,
2013-04-23 20:45:00,43.3,36.9,30.20,SSW,203,1.0,5.0,78,0.00,,,0.00,Wunderground PWS Mod,2013-04-24 00:45:00,
2013-04-23 20:53:00,43.6,36.9,30.20,SW,234,1.0,4.0,77,0.00,,,0.00,Wunderground PWS Mod,2013-04-24 00:53:00,
2013-04-23 20:58:00,43.5,36.8,30.20,SSW,198,1.0,4.0,77,0.00,,,0.00,Wunderground PWS Mod,2013-04-24 00:58:00,
2013-04-23 21:03:00,43.3,36.6,30.20,SW,217,2.0,4.0,77,0.00,,,0.00,Wunderground PWS Mod,2013-04-24 01:03:00,
2013-04-23 21:08:00,43.3,36.9,30.20,SW,216,1.0,4.0,78,0.00,,,0.00,Wunderground PWS Mod,2013-04-24 01:08:00,
2013-04-23 21:13:00,43.2,36.8,30.20,SW,216,0.0,5.0,78,0.00,,,0.00,Wunderground PWS Mod,2013-04-24 01:13:00,
2013-04-23 21:20:00,42.9,36.8,30.19,SW,225,0.0,2.0,79,0.00,,,0.00,Wunderground PWS Mod,2013-04-24 01:20:00,
2013-04-23 21:23:00,43.1,36.7,30.19,SW,216,0.0,5.0,78,0.00,,,0.00,Wunderground PWS Mod,2013-04-24 01:23:00,
2013-04-23 21:28:00,43.1,36.7,30.19,SW,216,0.0,5.0,78,0.00,,,0.00,Wunderground PWS Mod,2013-04-24 01:28:00,
2013-04-23 21:33:00,43.1,37.0,30.19,SW,216,0.0,5.0,79,0.00,,,0.00,Wunderground PWS Mod,2013-04-24 01:33:00,
2013-04-23 21:38:00,42.9,36.8,30.19,SW,216,0.0,5.0,79,0.00,,,0.00,Wunderground PWS Mod,2013-04-24 01:38:00,
2013-04-23 21:43:00,42.9,36.8,30.19,SW,216,0.0,2.0,79,0.00,,,0.00,Wunderground PWS Mod,2013-04-24 01:43:00,
2013-04-23 21:45:00,42.3,36.9,30.15,SW,225,0.0,2.0,81,0.00,,,0.00,Wunderground PWS Mod,2013-04-24 01:45:00,
2013-04-23 21:53:00,42.6,36.5,30.16,SW,216,0.0,2.0,79,0.00,,,0.00,Wunderground PWS Mod,2013-04-24 01:53:00,
2013-04-23 21:58:00,42.6,36.9,30.16,SW,216,0.0,2.0,80,0.00,,,0.00,Wunderground PWS Mod,2013-04-24 01:58:00,
2013-04-23 22:03:00,42.3,36.6,30.16,SW,216,0.0,2.0,80,0.00,,,0.00,Wunderground PWS Mod,2013-04-24 02:03:00,
2013-04-23 22:08:00,42.3,36.9,30.15,SW,216,0.0,2.0,81,0.00,,,0.00,Wunderground PWS Mod,2013-04-24 02:08:00,
2013-04-23 22:18:00,42.2,36.8,30.15,SW,216,0.0,2.0,81,0.00,,,0.00,Wunderground PWS Mod,2013-04-24 02:18:00,
2013-04-23 22:28:00,42.1,37.0,30.14,SW,216,0.0,2.0,82,0.00,,,0.00,Wunderground PWS Mod,2013-04-24 02:28:00,
2013-04-23 22:38:00,41.8,36.7,30.13,SW,216,1.0,2.0,82,0.00,,,0.00,Wunderground PWS Mod,2013-04-24 02:38:00,
2013-04-23 22:43:00,41.9,36.5,30.13,West,275,2.0,4.0,81,0.00,,,0.00,Wunderground PWS Mod,2013-04-24 02:43:00,
2013-04-23 22:53:00,41.6,36.5,30.12,West,275,0.0,4.0,82,0.00,,,0.00,Wunderground PWS Mod,2013-04-24 02:53:00,
2013-04-23 22:55:00,40.9,36.1,30.11,West,270,0.0,5.0,83,0.00,,,0.00,Wunderground PWS Mod,2013-04-24 02:55:00,
2013-04-23 23:03:00,41.2,36.4,30.12,West,275,0.0,4.0,83,0.00,,,0.00,Wunderground PWS Mod,2013-04-24 03:03:00,
2013-04-23 23:08:00,40.8,36.3,30.11,West,275,0.0,4.0,84,0.00,,,0.00,Wunderground PWS Mod,2013-04-24 03:08:00,
2013-04-23 23:13:00,40.5,36.3,30.11,West,275,0.0,5.0,85,0.00,,,0.00,Wunderground PWS Mod,2013-04-24 03:13:00,
2013-04-23 23:23:00,40.1,36.2,30.11,SSW,196,0.0,5.0,86,0.00,,,0.00,Wunderground PWS Mod,2013-04-24 03:23:00,
2013-04-23 23:25:00,40.1,36.0,30.11,SSW,203,1.0,7.0,85,0.00,,,0.00,Wunderground PWS Mod,2013-04-24 03:25:00,
2013-04-23 23:33:00,40.1,36.0,30.11,SSW,194,1.0,5.0,85,0.00,,,0.00,Wunderground PWS Mod,2013-04-24 03:33:00,
2013-04-23 23:38:00,40.1,36.0,30.11,South,188,1.0,5.0,85,0.00,,,0.00,Wunderground PWS Mod,2013-04-24 03:38:00,
2013-04-23 23:43:00,39.9,35.8,30.11,SSW,203,1.0,7.0,85,0.00,,,0.00,Wunderground PWS Mod,2013-04-24 03:43:00,
2013-04-23 23:45:00,38.5,35.0,30.08,South,180,0.0,3.0,87,0.00,,,0.00,Wunderground PWS Mod,2013-04-24 03:45:00,
2013-04-23 23:53:00,39.3,35.5,30.09,South,182,0.0,7.0,86,0.00,,,0.00,Wunderground PWS Mod,2013-04-24 03:53:00,